This is the latest recevied weather packets stored in our database for station/object N7CEE-2. If no packets are shown the sender has not sent any weather packets the latest 10 day(s).
| Time | Temp. | Humidity | Pressure | Rain* | Wind** | Luminosity | Snow |
|---|---|---|---|---|---|---|---|
| 1777234916 | 22.78° C | 32% | 1012.8 hPa | 0 mm | - | 474 W/m² | - |
| 1777234611 | 22.78° C | 33% | 1013 hPa | 0 mm | - | 1197 W/m² | - |
| 1777234311 | 21.67° C | 33% | 1013 hPa | 0 mm | - | 1202 W/m² | - |
| 1777234007 | 22.78° C | 32% | 1013.1 hPa | 0 mm | - | 1099 W/m² | - |
| 1777233704 | 21.67° C | 33% | 1013 hPa | 0 mm | - | 1080 W/m² | - |
| 1777233399 | 22.78° C | 32% | 1013.2 hPa | 0 mm | - | 621 W/m² | - |
| 1777233094 | 22.22° C | 33% | 1013.1 hPa | 0 mm | - | 1020 W/m² | - |
| 1777232791 | 22.22° C | 32% | 1013.2 hPa | 0 mm | - | 1078 W/m² | - |
| 1777232489 | 21.67° C | 34% | 1013.5 hPa | 0 mm | - | 244 W/m² | - |
| 1777232187 | 22.22° C | 32% | 1013.4 hPa | 0 mm | - | 1051 W/m² | - |
| 1777231883 | 22.22° C | 32% | 1013.3 hPa | 0 mm | - | 1069 W/m² | - |
| 1777231580 | 22.78° C | 32% | 1013.3 hPa | 0 mm | - | 1062 W/m² | - |
| 1777231276 | 22.78° C | 32% | 1013.4 hPa | 0 mm | - | 1081 W/m² | - |
| 1777230972 | 22.22° C | 33% | 1013.3 hPa | 0 mm | - | 1094 W/m² | - |
| 1777230669 | 21.67° C | 33% | 1013.5 hPa | 0 mm | - | 989 W/m² | - |
| 1777230364 | 21.67° C | 33% | 1013.4 hPa | 0 mm | - | 1075 W/m² | - |
| 1777230061 | 21.67° C | 32% | 1013.5 hPa | 0 mm | - | 1012 W/m² | - |
| 1777229757 | 22.22° C | 32% | 1013.6 hPa | 0 mm | - | 992 W/m² | - |
| 1777229454 | 21.67° C | 33% | 1013.6 hPa | 0 mm | - | 989 W/m² | - |
| 1777229151 | 21.67° C | 33% | 1013.6 hPa | 0 mm | - | 995 W/m² | - |
| 1777228849 | 21.11° C | 34% | 1013.6 hPa | 0 mm | - | 1032 W/m² | - |
| 1777228544 | 21.11° C | 34% | 1013.5 hPa | 0 mm | - | 1012 W/m² | - |
| 1777228240 | 21.11° C | 35% | 1013.7 hPa | 0 mm | - | 978 W/m² | - |
| 1777227939 | 21.11° C | 35% | 1013.7 hPa | 0 mm | - | 959 W/m² | - |
| 1777227635 | 20.56° C | 37% | 1013.8 hPa | 0 mm | - | 957 W/m² | - |
* Rain latest hour (hover to see other rain measurements)
** Current wind speed in m/s (hover to see current wind gust speed)